This demonstration page uses our WeatherBlox Daily Observations layout. Learn more.

38.88101, -77.10428

Hourly Observations for April 20, 2020

Temp ( °F °C ) Dew Point ( °F °C ) Humidity (%) Winds ( mph kmh ) Pressure ( in mb ) Visibility ( mi km ) Precip ( " mm )
12:52 am 00:52 Cloudy 54 12.2 47 8.3 77 77 Calm 29.71 1006 10 16.0934 0 0
1:52 am 01:52 Cloudy 55 12.8 46 7.8 72 72 Calm 29.69 1005 10 16.0934 0 0
2:52 am 02:52 Cloudy 53 11.7 46 7.8 77 77 Calm 29.68 1005 10 16.0934 0 0
3:52 am 03:52 Mostly Cloudy 54 12.2 48 8.9 80 80 N 3 6 29.65 1004 10 16.0934 0 0
4:52 am 04:52 Cloudy 53 11.7 46 7.8 77 77 NNW 8 13 29.63 1003 10 16.0934 0 0
5:52 am 05:52 Cloudy 53 11.7 46 7.8 77 77 N 5 7 29.62 1003 10 16.0934 0 0
6:52 am 06:52 Cloudy 55 12.8 45 7.2 69 69 NE 7 11 29.61 1003 10 16.0934 0 0
7:52 am 07:52 Cloudy 56 13.3 41 5 57 57 NE 13 20 29.62 1003 10 16.0934 0 0
8:52 am 08:52 Cloudy 56 13.3 41 5 57 57 NNE 14 22 29.64 1004 10 16.0934 0 0
9:52 am 09:52 Cloudy with Light Rain 55 12.8 41 5 59 59 NE 10 17 29.65 1004 10 16.0934 0.001 0.001
10:52 am 10:52 Cloudy 56 13.3 43 6.1 62 62 NE 12 19 29.67 1005 10 16.0934 0.001 0.001
11:52 am 11:52 Cloudy 57 13.9 43 6.1 60 60 N 10 17 29.67 1005 10 16.0934 0 0
12:52 pm 12:52 Cloudy 57 13.9 43 6.1 60 60 NE 9 15 29.66 1005 10 16.0934 0 0
1:52 pm 13:52 Cloudy 59 15 43 6.1 56 56 ENE 5 7 29.65 1004 10 16.0934 0 0
2:52 pm 14:52 Cloudy 61 16.1 41 5 48 48 VRB 3 6 29.65 1004 10 16.0934 0 0
3:52 pm 15:52 Mostly Cloudy 61 16.1 41 5 48 48 SE 3 6 29.64 1004 10 16.0934 0 0
4:52 pm 16:52 Mostly Cloudy 62 16.7 42 5.6 48 48 VRB 5 7 29.64 1004 10 16.0934 0 0
5:52 pm 17:52 Mostly Cloudy 64 17.8 41 5 43 43 N 6 9 29.65 1004 10 16.0934 0 0
6:52 pm 18:52 Partly Cloudy 62 16.7 39 3.9 43 43 NNE 6 9 29.65 1004 10 16.0934 0 0
7:52 pm 19:52 Mostly Clear 58 14.4 42 5.6 56 56 S 6 9 29.66 1004 10 16.0934 0 0
8:52 pm 20:52 Mostly Clear 55 12.8 42 5.6 62 62 SSW 7 11 29.68 1005 10 16.0934 0 0
9:52 pm 21:52 Mostly Clear 55 12.8 46 7.8 72 72 S 9 15 29.71 1006 10 16.0934 0 0
10:52 pm 22:52 Mostly Clear 53 11.7 47 8.3 80 80 S 8 13 29.72 1006 10 16.0934 0 0
11:52 pm 23:52 Partly Cloudy 53 11.7 46 7.8 77 77 S 12 19 29.72 1006 10 16.0934 0 0

Powered by AerisWeather